Address 0xe8d06fab87066d94214318c3472a0361e8dcaebe 4

Txn Hash Method
Block
From
To
Value [Txn Fee]
0x52b2e04f2f26ef7b7083be82b3502819eea82cb8b44ed7f6f7be07e24bf9c2b3Transfer278202732022-08-28 23:21:4336 days 5 hrs ago0xe8d06fab87066d94214318c3472a0361e8dcaebeOUT 0x8f7116ca03aeb48547d0e2edd3faa73bfb2325380 MATIC0.001178696695 43.747789614
0xef0f8d74a8c46d0d8e0b7b7cf4a3ba64a86f2d5e88dfdfe95de6b9a162bc1a0dDeposit278202692022-08-28 23:21:2336 days 5 hrs ago0xe8d06fab87066d94214318c3472a0361e8dcaebeOUT 0x4fb1e8ff1f233539cf1dd4305ba2194c0da4c56d0 MATIC0.004121482798 43.397277044
0x9bdb8b207a00267675125456d348112d8a6b1d6ba6ad8cb25dfa6236e067dd4bApprove278202652022-08-28 23:21:0336 days 5 hrs ago0xe8d06fab87066d94214318c3472a0361e8dcaebeOUT 0x8f7116ca03aeb48547d0e2edd3faa73bfb2325380 MATIC0.002027403814 43.747789614
0x8cf80c3e24e53a890d589ea3d050902003fac8db73d4ee1f26c0cd147aacac04Deposit278202612022-08-28 23:20:4336 days 5 hrs ago0xe8d06fab87066d94214318c3472a0361e8dcaebeOUT 0xf2d4c266fa0a5c4b27e8ed03313638eb521cdef00 MATIC0.012474419721 43.747789614
0x905c22fa06ae7d3b028c8e0a99651dd2759ea65f44429ab05e63c652b31aa4efApprove278202572022-08-28 23:20:2336 days 5 hrs ago0xe8d06fab87066d94214318c3472a0361e8dcaebeOUT 0x8f7116ca03aeb48547d0e2edd3faa73bfb2325380 MATIC0.002011160009 43.397277035
0x1262b6a420f88dcd23a7ad6c02bf760282b6d1089b655ba5d44243115964c6a5Mint278202572022-08-28 23:20:2336 days 5 hrs ago0xe8d06fab87066d94214318c3472a0361e8dcaebeOUT 0x8f7116ca03aeb48547d0e2edd3faa73bfb2325380 MATIC0.002124141318 41.440999644
0x30d461df5f5b01c40745f731f5bcdd0da877d51b0cfbad1d9c1ef20e682bd00aRepay274917462022-08-06 2:36:3759 days 1 hr ago0xe8d06fab87066d94214318c3472a0361e8dcaebeOUT 0xf567936029420a70f7b235695ebee305511e6dd50 MATIC0.027291646005 67.000000014
0x99c012bd890feaede6c517bfd2fb3d0c4dcb7fea9dc502e59d6743d9e2c49d2fWithdraw274917412022-08-06 2:36:1259 days 1 hr ago0xe8d06fab87066d94214318c3472a0361e8dcaebeOUT 0x6b3881f910a46631dc2f65fb08a600af8c93ce4d0 MATIC0.048295096009 68.000000014
0xad919f5df566b162fdccbce84c09d9c78ac19a969d33ef4cb8da17550da27d45Withdraw274917392022-08-06 2:36:0259 days 1 hr ago0xe8d06fab87066d94214318c3472a0361e8dcaebeOUT 0x6b3881f910a46631dc2f65fb08a600af8c93ce4d0 MATIC0.04477455751 62.250000014
0x7bf19340562ec59d5e04a919ef258d558e0ed051a6a1c5dc31a773cebcbfdbe30x4b44a024274917342022-08-06 2:35:3759 days 1 hr ago0xe8d06fab87066d94214318c3472a0361e8dcaebeOUT 0x5410868ed91131a53f974801dd7c03dea33abe3e0 MATIC0.047446757145 59.722096604
0x81dc72b8d0ba99bd2103dc843ac98b116c5663bbcaed8867178a7b42af363425Borrow274917282022-08-06 2:35:0759 days 1 hr ago0xe8d06fab87066d94214318c3472a0361e8dcaebeOUT 0xf567936029420a70f7b235695ebee305511e6dd50 MATIC0.044992920005 58.000000007
0xce19893d445dde7d1156c455740d3042f59fca1aee717509a337e298a35bb67fBorrow274917252022-08-06 2:34:5259 days 1 hr ago0xe8d06fab87066d94214318c3472a0361e8dcaebeOUT 0xf567936029420a70f7b235695ebee305511e6dd50 MATIC0.042658942005 58.000000007
0xfeca3ba3387ba1f6f86d54b6d2355eb03efa53a7bd03757412efae53088f1a73Deposit274917192022-08-06 2:34:2259 days 1 hr ago0xe8d06fab87066d94214318c3472a0361e8dcaebeOUT 0x6b3881f910a46631dc2f65fb08a600af8c93ce4d0 MATIC0.021618453272 55.432500007
0x4b26acb41025417ff045581e6e29fb51ca970d20adf5c2ba9a906c2af4cbce7fDeposit274917162022-08-06 2:34:0759 days 1 hr ago0xe8d06fab87066d94214318c3472a0361e8dcaebeOUT 0x6b3881f910a46631dc2f65fb08a600af8c93ce4d0 MATIC0.021611171405 54.600000014
0x21dcb260eeff139b66a02099811299ab7e67db46cfc56308be2fed82a4a9d4d8Deposit274917132022-08-06 2:33:5259 days 1 hr ago0xe8d06fab87066d94214318c3472a0361e8dcaebeOUT 0x6b3881f910a46631dc2f65fb08a600af8c93ce4d0 MATIC0.026337565806 54.600000014
0xa03d31ce59fccd546732d161a19da97cc31e0e146176e80096f91ea698aae23bApprove274917052022-08-06 2:33:1159 days 1 hr ago0xe8d06fab87066d94214318c3472a0361e8dcaebeOUT 0x380ce8100227635f5c67f969f4d33c2704b7fe5d0 MATIC0.00247426125 53.250000007
0xcf2df2e0bae40507f89b69d6cb5ba790d71bceef2ad133fee908009e4c12d05bApprove274917022022-08-06 2:32:5659 days 1 hr ago0xe8d06fab87066d94214318c3472a0361e8dcaebeOUT 0xf631afff6f251fd94481e434dd48ac565674fe1a0 MATIC0.002478468 53.250000007
0x9750d0dd3aad5ed295d985a10b34239fe2beffba2937b39a0cfb91812ad53683Approve274916992022-08-06 2:32:4159 days 1 hr ago0xe8d06fab87066d94214318c3472a0361e8dcaebeOUT 0x562a1fd99e4a9b1cb7d862b4a1d4c164c04a0aec0 MATIC0.002494596269 53.59651661
0x16671db2788300f9b07e7841184450463735cd6395ad291858d8d27fb348ad55Approve274916962022-08-06 2:32:2659 days 1 hr ago0xe8d06fab87066d94214318c3472a0361e8dcaebeOUT 0x321507ea5218ee046ac0c94c1749c487b72360510 MATIC0.002478468 53.250000007
0x2c0e1b7093ceee59e4c0472f3d4a238fd5234bfabd7555e684768172e46d786eApprove274916932022-08-06 2:32:1159 days 1 hr ago0xe8d06fab87066d94214318c3472a0361e8dcaebeOUT 0xf61cbcac6c5e4f27543495890536b799d18f71780 MATIC0.002478468 53.250000007
0x1bee2bdfe760a9e11297bc37fa0a96012a008031386060eaf5559e70b0734d31Mint274916922022-08-06 2:32:0659 days 1 hr ago0xe8d06fab87066d94214318c3472a0361e8dcaebeOUT 0x562a1fd99e4a9b1cb7d862b4a1d4c164c04a0aec0 MATIC0.0026750412 52.650000007
0x95904a8a6fcd2ba38a84d18e008193323d2cca5ffcd0778b069c5f8557c2a004Mint274916902022-08-06 2:31:5659 days 1 hr ago0xe8d06fab87066d94214318c3472a0361e8dcaebeOUT 0xf631afff6f251fd94481e434dd48ac565674fe1a0 MATIC0.002624965646 51.676621112
0x8544396105e21e217e8d56391493fe0fb63d41fa64004673c26d7b9f7612d683Mint274916892022-08-06 2:31:5159 days 1 hr ago0xe8d06fab87066d94214318c3472a0361e8dcaebeOUT 0x380ce8100227635f5c67f969f4d33c2704b7fe5d0 MATIC0.002370491019 51.843474324
0x55ffaeafd5426ccdebae58735c7b2e73afea030179c1ae3119447803a83dda7bMint274916872022-08-06 2:31:4159 days 1 hr ago0xe8d06fab87066d94214318c3472a0361e8dcaebeOUT 0x321507ea5218ee046ac0c94c1749c487b72360510 MATIC0.002625585765 51.676621112
0x205955480f6a77e995e5d97dfaebf16ce7f68730f1992f01f5bd8ebbafadb56dMint274916862022-08-06 2:31:3659 days 1 hr ago0xe8d06fab87066d94214318c3472a0361e8dcaebeOUT 0xf61cbcac6c5e4f27543495890536b799d18f71780 MATIC0.002628066243 51.676621112
[ Download CSV Export 
Latest 3 internal transactions
Parent Txn Hash Block From To Value
0x50e164de6c9a497180c3298753c52e7ed4eb59f3264feb79541d3dc35dd00ac2280948142022-09-14 7:14:0519 days 21 hrs ago 0x7f092e65c688a509737fcd8d0998dd12208f52970xe8d06fab87066d94214318c3472a0361e8dcaebe0.2 MATIC
0xadf81bd263f367c6c2c0931cf2d819aa4c127e7ab81fd4211ea7662c364df6bc274678942022-08-04 7:45:4860 days 20 hrs ago 0x7f092e65c688a509737fcd8d0998dd12208f52970xe8d06fab87066d94214318c3472a0361e8dcaebe0.2 MATIC
0x8c285925a67e366599084a3ce79799926fbe67d3913d59bec0920dea5ae4bbb1274542332022-08-03 7:18:0661 days 21 hrs ago 0x7f092e65c688a509737fcd8d0998dd12208f52970xe8d06fab87066d94214318c3472a0361e8dcaebe0.2 MATIC
[ Download CSV Export 
Loading

Contract Name:
0 MATIC

Compiler Version
0

Optimization Enabled:
0 MATIC

Other Settings:
-NA-
Block Transaction Gas Used Reward
Age Block Fee Address BC Fee Address Voting Power Jailed Incoming
Block Uncle Number Difficulty Gas Used Reward
Loading